Time,TemperatureF,DewpointF,PressureIn,WindDirection,WindDirectionDegrees,WindSpeedMPH,WindSpeedGustMPH,Humidity,HourlyPrecipIn,Conditions,Clouds,dailyrainin,SoftwareType,DateUTC
2013-03-25 00:02:00,33.0,28.0,29.76,SW,215,0.0,0.0,82,0.00,,,0.00,,2013-03-25 04:02:00,
2013-03-25 00:12:00,33.0,28.0,29.76,SW,215,0.0,0.0,82,0.00,,,0.00,,2013-03-25 04:12:00,
2013-03-25 00:22:00,33.0,28.0,29.76,SW,215,0.0,0.0,81,0.00,,,0.00,,2013-03-25 04:22:00,
2013-03-25 00:33:00,32.0,27.0,29.76,SW,215,0.0,0.0,82,0.00,,,0.00,,2013-03-25 04:33:00,
2013-03-25 00:43:00,32.0,27.0,29.76,SW,215,0.0,0.0,82,0.00,,,0.00,,2013-03-25 04:43:00,
2013-03-25 00:52:00,31.0,26.0,29.76,SW,215,0.0,0.0,83,0.00,,,0.00,,2013-03-25 04:52:00,
2013-03-25 01:03:00,32.0,27.0,29.76,SW,215,0.0,0.0,83,0.00,,,0.00,,2013-03-25 05:03:00,
2013-03-25 01:12:00,32.0,27.0,29.76,SW,215,0.0,0.0,83,0.00,,,0.00,,2013-03-25 05:12:00,
2013-03-25 01:22:00,32.0,28.0,29.75,SW,215,0.0,0.0,85,0.00,,,0.00,,2013-03-25 05:22:00,
2013-03-25 01:32:00,33.0,28.0,29.75,SW,215,0.0,0.0,82,0.00,,,0.00,,2013-03-25 05:32:00,
2013-03-25 01:42:00,33.0,28.0,29.75,SW,215,0.0,0.0,82,0.00,,,0.00,,2013-03-25 05:42:00,
2013-03-25 01:53:00,33.0,28.0,29.75,SW,215,0.0,0.0,82,0.00,,,0.00,,2013-03-25 05:53:00,
2013-03-25 02:02:00,33.0,28.0,29.75,SW,215,0.0,0.0,81,0.00,,,0.00,,2013-03-25 06:02:00,
2013-03-25 02:12:00,33.0,28.0,29.75,SW,215,0.0,0.0,81,0.00,,,0.00,,2013-03-25 06:12:00,
2013-03-25 02:22:00,33.0,28.0,29.75,SW,215,0.0,0.0,80,0.00,,,0.00,,2013-03-25 06:22:00,
2013-03-25 02:32:00,33.0,27.0,29.74,NNE,18,1.0,1.0,78,0.00,,,0.00,,2013-03-25 06:32:00,
2013-03-25 02:42:00,33.0,27.0,29.74,NNE,18,1.0,1.0,78,0.00,,,0.00,,2013-03-25 06:42:00,
2013-03-25 02:53:00,33.0,27.0,29.74,NNE,18,0.0,0.0,77,0.00,,,0.00,,2013-03-25 06:53:00,
2013-03-25 03:02:00,33.0,26.0,29.74,NNE,18,0.0,0.0,76,0.00,,,0.00,,2013-03-25 07:02:00,
2013-03-25 03:12:00,33.0,26.0,29.74,NNE,18,0.0,0.0,76,0.00,,,0.00,,2013-03-25 07:12:00,
2013-03-25 03:22:00,33.0,26.0,29.74,North,355,0.0,0.0,75,0.00,,,0.00,,2013-03-25 07:22:00,
2013-03-25 03:32:00,33.0,26.0,29.74,North,356,0.0,0.0,74,0.00,,,0.00,,2013-03-25 07:32:00,
2013-03-25 03:42:00,33.0,26.0,29.74,North,356,0.0,0.0,74,0.00,,,0.00,,2013-03-25 07:42:00,
2013-03-25 03:53:00,33.0,26.0,29.73,North,356,0.0,0.0,74,0.00,,,0.00,,2013-03-25 07:53:00,
2013-03-25 04:03:00,32.0,25.0,29.73,North,356,0.0,0.0,74,0.00,,,0.00,,2013-03-25 08:03:00,
2013-03-25 04:12:00,32.0,25.0,29.73,North,356,0.0,0.0,74,0.00,,,0.00,,2013-03-25 08:12:00,
2013-03-25 04:23:00,32.0,25.0,29.73,North,354,0.0,0.0,75,0.00,,,0.00,,2013-03-25 08:23:00,
2013-03-25 04:32:00,32.0,25.0,29.72,North,358,0.0,0.0,75,0.00,,,0.00,,2013-03-25 08:32:00,
2013-03-25 04:43:00,32.0,25.0,29.72,North,358,0.0,0.0,75,0.00,,,0.00,,2013-03-25 08:43:00,
2013-03-25 04:52:00,31.0,24.0,29.72,North,358,0.0,0.0,76,0.00,,,0.00,,2013-03-25 08:52:00,
2013-03-25 05:02:00,31.0,25.0,29.71,North,358,0.0,0.0,78,0.00,,,0.00,,2013-03-25 09:02:00,
2013-03-25 05:12:00,31.0,25.0,29.71,North,358,0.0,0.0,78,0.00,,,0.00,,2013-03-25 09:12:00,
2013-03-25 05:22:00,31.0,25.0,29.71,North,358,0.0,0.0,78,0.00,,,0.00,,2013-03-25 09:22:00,
2013-03-25 05:33:00,31.0,25.0,29.71,North,358,0.0,0.0,79,0.00,,,0.00,,2013-03-25 09:33:00,
2013-03-25 05:43:00,31.0,25.0,29.71,North,358,0.0,0.0,79,0.00,,,0.00,,2013-03-25 09:43:00,
2013-03-25 05:53:00,30.0,24.0,29.71,North,359,0.0,0.0,79,0.00,,,0.00,,2013-03-25 09:53:00,
2013-03-25 06:03:00,30.0,24.0,29.71,North,359,0.0,0.0,79,0.00,,,0.00,,2013-03-25 10:03:00,
2013-03-25 06:12:00,30.0,24.0,29.71,North,359,0.0,0.0,79,0.00,,,0.00,,2013-03-25 10:12:00,
2013-03-25 06:22:00,30.0,24.0,29.71,North,360,0.0,0.0,79,0.00,,,0.00,,2013-03-25 10:22:00,
2013-03-25 06:33:00,30.0,25.0,29.71,North,360,0.0,0.0,80,0.00,,,0.00,,2013-03-25 10:33:00,
2013-03-25 06:42:00,30.0,25.0,29.71,North,360,0.0,0.0,80,0.00,,,0.00,,2013-03-25 10:42:00,
2013-03-25 06:54:00,30.0,25.0,29.71,North,360,0.0,0.0,80,0.00,,,0.00,,2013-03-25 10:54:00,
2013-03-25 07:03:00,30.0,25.0,29.70,North,360,0.0,0.0,81,0.00,,,0.00,,2013-03-25 11:03:00,
2013-03-25 07:12:00,30.0,25.0,29.70,North,360,0.0,0.0,81,0.00,,,0.00,,2013-03-25 11:12:00,
2013-03-25 07:23:00,30.0,25.0,29.70,North,359,0.0,0.0,81,0.00,,,0.00,,2013-03-25 11:23:00,
2013-03-25 07:32:00,31.0,26.0,29.71,North,360,0.0,0.0,81,0.00,,,0.00,,2013-03-25 11:32:00,
2013-03-25 07:42:00,31.0,26.0,29.71,North,360,0.0,0.0,81,0.00,,,0.00,,2013-03-25 11:42:00,
2013-03-25 07:53:00,31.0,26.0,29.71,North,360,0.0,0.0,82,0.00,,,0.00,,2013-03-25 11:53:00,
2013-03-25 08:03:00,31.0,26.0,29.71,North,360,0.0,0.0,81,0.00,,,0.00,,2013-03-25 12:03:00,
2013-03-25 08:13:00,31.0,26.0,29.71,North,360,0.0,0.0,81,0.00,,,0.00,,2013-03-25 12:13:00,
2013-03-25 08:23:00,32.0,27.0,29.72,North,360,0.0,0.0,82,0.00,,,0.00,,2013-03-25 12:23:00,
2013-03-25 08:32:00,33.0,28.0,29.72,NNW,341,0.0,0.0,81,0.00,,,0.00,,2013-03-25 12:32:00,
2013-03-25 08:43:00,33.0,28.0,29.72,NNW,341,0.0,0.0,81,0.00,,,0.00,,2013-03-25 12:43:00,
2013-03-25 08:54:00,34.0,29.0,29.72,NNE,21,2.0,5.0,83,0.00,,,0.00,,2013-03-25 12:54:00,
2013-03-25 09:02:00,35.0,30.0,29.72,NNW,334,4.0,6.0,83,0.00,,,0.00,,2013-03-25 13:02:00,
2013-03-25 09:13:00,35.0,30.0,29.72,NNW,334,4.0,6.0,83,0.00,,,0.00,,2013-03-25 13:13:00,
2013-03-25 09:23:00,36.0,31.0,29.71,NW,321,3.0,6.0,83,0.00,,,0.00,,2013-03-25 13:23:00,
2013-03-25 09:32:00,37.0,33.0,29.71,NNW,338,3.0,8.0,84,0.00,,,0.00,,2013-03-25 13:32:00,
2013-03-25 09:43:00,37.0,33.0,29.71,NNW,338,3.0,8.0,84,0.00,,,0.00,,2013-03-25 13:43:00,
2013-03-25 09:52:00,37.0,33.0,29.70,NNW,340,3.0,8.0,84,0.00,,,0.00,,2013-03-25 13:52:00,
2013-03-25 10:03:00,37.0,33.0,29.70,NNE,16,2.0,11.0,84,0.00,,,0.00,,2013-03-25 14:03:00,
2013-03-25 10:12:00,37.0,33.0,29.70,NNE,16,2.0,11.0,84,0.00,,,0.00,,2013-03-25 14:12:00,
2013-03-25 10:22:00,38.0,34.0,29.69,NNE,21,2.0,9.0,84,0.00,,,0.00,,2013-03-25 14:22:00,
2013-03-25 10:32:00,38.0,34.0,29.68,North,6,1.0,8.0,84,0.00,,,0.00,,2013-03-25 14:32:00,
2013-03-25 10:43:00,38.0,34.0,29.68,North,6,1.0,8.0,84,0.00,,,0.00,,2013-03-25 14:43:00,
2013-03-25 10:52:00,38.0,34.0,29.68,NNE,25,3.0,7.0,84,0.00,,,0.00,,2013-03-25 14:52:00,
2013-03-25 11:03:00,38.0,34.0,29.67,NNW,330,7.0,12.0,84,0.00,,,0.00,,2013-03-25 15:03:00,
2013-03-25 11:13:00,38.0,34.0,29.67,NNW,330,7.0,12.0,84,0.00,,,0.00,,2013-03-25 15:13:00,
2013-03-25 11:23:00,38.0,34.0,29.67,NNE,32,5.0,10.0,84,0.00,,,0.00,,2013-03-25 15:23:00,
2013-03-25 11:33:00,39.0,35.0,29.67,NW,321,5.0,10.0,84,0.00,,,0.00,,2013-03-25 15:33:00,
2013-03-25 11:42:00,39.0,35.0,29.67,NW,321,5.0,10.0,84,0.00,,,0.00,,2013-03-25 15:42:00,
2013-03-25 11:53:00,38.0,34.0,29.67,North,359,3.0,11.0,84,0.00,,,0.00,,2013-03-25 15:53:00,
2013-03-25 12:03:00,38.0,34.0,29.67,North,1,4.0,11.0,84,0.00,,,0.00,,2013-03-25 16:03:00,
2013-03-25 12:12:00,38.0,34.0,29.67,North,1,4.0,11.0,84,0.00,,,0.00,,2013-03-25 16:12:00,
2013-03-25 12:23:00,38.0,34.0,29.67,North,1,4.0,11.0,84,0.00,,,0.00,,2013-03-25 16:23:00,
2013-03-25 12:33:00,39.0,34.0,29.66,ENE,67,3.0,5.0,83,0.00,,,0.00,,2013-03-25 16:33:00,
2013-03-25 12:43:00,39.0,34.0,29.66,ENE,67,3.0,5.0,83,0.00,,,0.00,,2013-03-25 16:43:00,
2013-03-25 12:53:00,39.0,34.0,29.65,North,8,3.0,10.0,83,0.00,,,0.00,,2013-03-25 16:53:00,
2013-03-25 13:03:00,39.0,35.0,29.65,ENE,59,2.0,5.0,84,0.00,,,0.00,,2013-03-25 17:03:00,
2013-03-25 13:12:00,39.0,35.0,29.65,ENE,59,2.0,5.0,84,0.00,,,0.00,,2013-03-25 17:12:00,
2013-03-25 13:24:00,39.0,34.0,29.65,NNW,342,3.0,5.0,83,0.00,,,0.00,,2013-03-25 17:24:00,
2013-03-25 13:33:00,39.0,34.0,29.64,NNE,15,4.0,11.0,83,0.00,,,0.00,,2013-03-25 17:33:00,
2013-03-25 13:43:00,39.0,34.0,29.64,NNE,15,4.0,11.0,83,0.00,,,0.00,,2013-03-25 17:43:00,
2013-03-25 13:53:00,39.0,35.0,29.63,NNE,26,3.0,10.0,85,0.00,,,0.00,,2013-03-25 17:53:00,
2013-03-25 14:03:00,39.0,35.0,29.62,NE,46,3.0,9.0,85,0.00,,,0.00,,2013-03-25 18:03:00,
2013-03-25 14:13:00,39.0,35.0,29.62,NE,46,3.0,9.0,85,0.00,,,0.00,,2013-03-25 18:13:00,
2013-03-25 14:23:00,40.0,35.0,29.62,NNE,29,4.0,9.0,82,0.00,,,0.00,,2013-03-25 18:23:00,
2013-03-25 14:33:00,40.0,35.0,29.62,East,82,4.0,12.0,83,0.00,,,0.00,,2013-03-25 18:33:00,
2013-03-25 14:43:00,40.0,35.0,29.62,East,82,4.0,12.0,83,0.00,,,0.00,,2013-03-25 18:43:00,
2013-03-25 14:53:00,40.0,35.0,29.61,ESE,103,5.0,11.0,82,0.00,,,0.00,,2013-03-25 18:53:00,
2013-03-25 15:03:00,40.0,35.0,29.61,NE,38,3.0,13.0,81,0.00,,,0.00,,2013-03-25 19:03:00,
2013-03-25 15:13:00,40.0,35.0,29.61,NE,38,3.0,13.0,81,0.00,,,0.00,,2013-03-25 19:13:00,
2013-03-25 15:23:00,40.0,34.0,29.59,NNE,16,6.0,13.0,80,0.00,,,0.00,,2013-03-25 19:23:00,
2013-03-25 15:33:00,39.0,33.0,29.59,NNE,13,4.0,10.0,79,0.00,,,0.00,,2013-03-25 19:33:00,
2013-03-25 15:43:00,39.0,33.0,29.59,NNE,13,4.0,10.0,79,0.00,,,0.00,,2013-03-25 19:43:00,
2013-03-25 15:53:00,39.0,33.0,29.57,North,358,6.0,12.0,80,0.00,,,0.00,,2013-03-25 19:53:00,
2013-03-25 16:02:00,39.0,34.0,29.54,North,4,4.0,14.0,82,0.00,,,0.00,,2013-03-25 20:02:00,
2013-03-25 16:12:00,39.0,34.0,29.54,North,4,4.0,14.0,82,0.00,,,0.00,,2013-03-25 20:12:00,
2013-03-25 16:22:00,39.0,34.0,29.53,NE,53,5.0,10.0,82,0.00,,,0.00,,2013-03-25 20:22:00,
2013-03-25 16:32:00,39.0,34.0,29.53,NNW,347,7.0,14.0,83,0.00,,,0.00,,2013-03-25 20:32:00,
2013-03-25 16:42:00,39.0,34.0,29.53,NNW,347,7.0,14.0,83,0.00,,,0.00,,2013-03-25 20:42:00,
2013-03-25 16:52:00,39.0,33.0,29.54,NE,43,5.0,10.0,80,0.00,,,0.00,,2013-03-25 20:52:00,
2013-03-25 17:03:00,39.0,33.0,29.53,NW,312,4.0,10.0,80,0.00,,,0.00,,2013-03-25 21:03:00,
2013-03-25 17:13:00,39.0,33.0,29.53,NW,312,4.0,10.0,80,0.00,,,0.00,,2013-03-25 21:13:00,
2013-03-25 17:22:00,39.0,34.0,29.53,North,354,3.0,8.0,81,0.00,,,0.00,,2013-03-25 21:22:00,
2013-03-25 17:33:00,39.0,34.0,29.53,North,4,5.0,11.0,82,0.00,,,0.00,,2013-03-25 21:33:00,
2013-03-25 17:43:00,39.0,34.0,29.53,North,4,5.0,11.0,82,0.00,,,0.00,,2013-03-25 21:43:00,
2013-03-25 17:52:00,39.0,34.0,29.53,ENE,72,4.0,9.0,81,0.00,,,0.00,,2013-03-25 21:52:00,
2013-03-25 18:03:00,39.0,33.0,29.54,NNE,17,2.0,9.0,80,0.00,,,0.00,,2013-03-25 22:03:00,
2013-03-25 18:13:00,39.0,33.0,29.54,NNE,17,2.0,9.0,80,0.00,,,0.00,,2013-03-25 22:13:00,
2013-03-25 18:23:00,39.0,34.0,29.54,NE,43,3.0,8.0,81,0.00,,,0.00,,2013-03-25 22:23:00,
2013-03-25 18:33:00,39.0,34.0,29.54,North,8,2.0,8.0,81,0.00,,,0.00,,2013-03-25 22:33:00,
2013-03-25 18:42:00,39.0,34.0,29.54,North,8,2.0,8.0,81,0.00,,,0.00,,2013-03-25 22:42:00,
2013-03-25 18:52:00,38.0,33.0,29.54,NNE,16,4.0,6.0,81,0.00,,,0.00,,2013-03-25 22:52:00,
2013-03-25 19:03:00,38.0,33.0,29.54,NNE,21,3.0,7.0,82,0.00,,,0.00,,2013-03-25 23:03:00,
2013-03-25 19:12:00,38.0,33.0,29.54,NNE,21,3.0,7.0,82,0.00,,,0.00,,2013-03-25 23:12:00,
2013-03-25 19:23:00,37.0,32.0,29.54,ENE,72,2.0,8.0,83,0.00,,,0.00,,2013-03-25 23:23:00,
2013-03-25 19:32:00,37.0,33.0,29.54,ENE,57,3.0,6.0,84,0.00,,,0.00,,2013-03-25 23:32:00,
2013-03-25 19:43:00,37.0,33.0,29.54,ENE,57,3.0,6.0,84,0.00,,,0.00,,2013-03-25 23:43:00,
2013-03-25 19:53:00,37.0,32.0,29.54,NE,39,3.0,6.0,83,0.00,,,0.00,,2013-03-25 23:53:00,
2013-03-25 20:02:00,37.0,32.0,29.54,NNW,339,2.0,8.0,82,0.00,,,0.00,,2013-03-26 00:02:00,
2013-03-25 20:12:00,37.0,32.0,29.54,NNW,339,2.0,8.0,82,0.00,,,0.00,,2013-03-26 00:12:00,
2013-03-25 20:22:00,37.0,31.0,29.54,North,354,3.0,7.0,80,0.00,,,0.00,,2013-03-26 00:22:00,
2013-03-25 20:32:00,37.0,31.0,29.55,North,6,2.0,6.0,78,0.00,,,0.00,,2013-03-26 00:32:00,
2013-03-25 20:42:00,37.0,31.0,29.55,North,6,2.0,6.0,78,0.00,,,0.00,,2013-03-26 00:42:00,
2013-03-25 20:52:00,38.0,32.0,29.55,East,79,1.0,6.0,79,0.00,,,0.00,,2013-03-26 00:52:00,
2013-03-25 21:02:00,38.0,32.0,29.55,North,5,2.0,3.0,79,0.00,,,0.00,,2013-03-26 01:02:00,
2013-03-25 21:12:00,38.0,32.0,29.55,North,5,2.0,3.0,79,0.00,,,0.00,,2013-03-26 01:12:00,
2013-03-25 21:23:00,38.0,32.0,29.55,NNW,347,4.0,6.0,78,0.00,,,0.00,,2013-03-26 01:23:00,
2013-03-25 21:32:00,38.0,32.0,29.55,NNW,328,4.0,8.0,78,0.00,,,0.00,,2013-03-26 01:32:00,
2013-03-25 21:42:00,38.0,32.0,29.55,NNW,328,4.0,8.0,78,0.00,,,0.00,,2013-03-26 01:42:00,
2013-03-25 21:53:00,38.0,33.0,29.54,North,358,3.0,6.0,81,0.00,,,0.00,,2013-03-26 01:53:00,
2013-03-25 22:02:00,38.0,33.0,29.54,NNW,334,4.0,6.0,82,0.00,,,0.00,,2013-03-26 02:02:00,
2013-03-25 22:12:00,38.0,33.0,29.54,NNW,334,4.0,6.0,82,0.00,,,0.00,,2013-03-26 02:12:00,
2013-03-25 22:22:00,38.0,33.0,29.54,NNW,341,5.0,8.0,83,0.00,,,0.00,,2013-03-26 02:22:00,
2013-03-25 22:32:00,37.0,32.0,29.54,North,354,5.0,7.0,83,0.00,,,0.00,,2013-03-26 02:32:00,
2013-03-25 22:42:00,37.0,32.0,29.54,North,354,5.0,7.0,83,0.00,,,0.00,,2013-03-26 02:42:00,
2013-03-25 22:52:00,37.0,32.0,29.54,NNW,341,5.0,7.0,82,0.00,,,0.00,,2013-03-26 02:52:00,
2013-03-25 23:02:00,37.0,32.0,29.53,North,357,4.0,7.0,81,0.00,,,0.00,,2013-03-26 03:02:00,
2013-03-25 23:12:00,37.0,32.0,29.53,North,357,4.0,7.0,81,0.00,,,0.00,,2013-03-26 03:12:00,
2013-03-25 23:22:00,37.0,32.0,29.54,NNW,332,3.0,7.0,81,0.00,,,0.00,,2013-03-26 03:22:00,
2013-03-25 23:33:00,37.0,32.0,29.53,NNW,340,3.0,7.0,81,0.00,,,0.00,,2013-03-26 03:33:00,
2013-03-25 23:42:00,37.0,32.0,29.53,NNW,340,3.0,7.0,81,0.00,,,0.00,,2013-03-26 03:42:00,
2013-03-25 23:52:00,37.0,32.0,29.53,NNW,341,3.0,8.0,81,0.00,,,0.00,,2013-03-26 03:52:00,